This is the latest recevied weather packets stored in our database for station/object KJ6APE. If no packets are shown the sender has not sent any weather packets the latest 10 day(s).
| Time | Temp. | Humidity | Pressure | Rain* | Wind** | Luminosity | Snow |
|---|---|---|---|---|---|---|---|
| 1778209642 | 17.78° C | 68% | 1016.4 hPa | 0 mm | - | 3 W/m² | - |
| 1778209339 | 17.78° C | 67% | 1016.1 hPa | 0 mm | - | 6 W/m² | - |
| 1778209036 | 17.78° C | 66% | 1016.2 hPa | 0 mm | - | 9 W/m² | - |
| 1778208733 | 18.33° C | 65% | 1016 hPa | 0 mm | - | 13 W/m² | - |
| 1778208429 | 18.89° C | 64% | 1016 hPa | 0 mm | - | 17 W/m² | - |
| 1778208126 | 19.44° C | 62% | 1016.2 hPa | 0 mm | - | 21 W/m² | - |
| 1778207822 | 20° C | 61% | 1016.2 hPa | 0 mm | - | 32 W/m² | - |
| 1778207520 | 20° C | 61% | 1015.9 hPa | 0 mm | - | 40 W/m² | - |
| 1778207215 | 20° C | 60% | 1016 hPa | 0 mm | - | 48 W/m² | - |
| 1778206913 | 20.56° C | 59% | 1015.9 hPa | 0 mm | - | 58 W/m² | - |
| 1778206609 | 20.56° C | 58% | 1016.1 hPa | 0 mm | - | 63 W/m² | - |
| 1778206304 | 21.11° C | 57% | 1016.1 hPa | 0 mm | - | 75 W/m² | - |
| 1778206002 | 21.67° C | 56% | 1016 hPa | 0 mm | - | 83 W/m² | - |
| 1778205700 | 21.67° C | 54% | 1016.1 hPa | 0 mm | - | 92 W/m² | - |
| 1778205397 | 22.22° C | 54% | 1016 hPa | 0 mm | - | 103 W/m² | - |
| 1778205094 | 22.78° C | 53% | 1016 hPa | 0 mm | - | 125 W/m² | - |
| 1778204790 | 22.78° C | 53% | 1016.1 hPa | 0 mm | - | 150 W/m² | - |
| 1778204486 | 23.33° C | 52% | 1016 hPa | 0 mm | - | 167 W/m² | - |
| 1778204183 | 23.89° C | 50% | 1016 hPa | 0 mm | - | 199 W/m² | - |
| 1778203880 | 23.89° C | 49% | 1015.9 hPa | 0 mm | - | 220 W/m² | - |
| 1778203577 | 23.89° C | 50% | 1015.9 hPa | 0 mm | - | 240 W/m² | - |
| 1778203274 | 24.44° C | 48% | 1015.9 hPa | 0 mm | - | 258 W/m² | - |
| 1778202973 | 24.44° C | 48% | 1016.1 hPa | 0 mm | - | 278 W/m² | - |
| 1778202669 | 25° C | 47% | 1016.1 hPa | 0 mm | - | 299 W/m² | - |
| 1778202366 | 25° C | 47% | 1015.8 hPa | 0 mm | - | 322 W/m² | - |
* Rain latest hour (hover to see other rain measurements)
** Current wind speed in m/s (hover to see current wind gust speed)